STARLINK-31973, 59943

Orbit data source: Space-Track

STARLINK-31973, 59943 is a payload satellite owned by SpaceX/Seattle (US) in LEO that was launched on Sat, 01 Jun 2024 UTC via an FALCON 9 launch vehicle from the Air Force Eastern Test Range (AFETR). Payload-class satellites include a variety of spacecraft equipped with specific instruments for various scientific and technological missions. These include communications satellites like Starlink; space stations such as the ISS; scientific satellites like the Hubble; Earth observation satellites from companies like Planet Labs, Umbra, and HawkEye 360; GPS; miniature CubeSats for education and research; and military/defense satellites.

Loading next visibility...
Identifier
59943, 2024-106X
Orbit
LEO
Country
Flag of USUS
Related business
Manufacturer
SpaceX/Seattle
Mission
Operational spacecraft
Bus & Motor
STARLINK V2M, Unknown motor
Mass
730 kg wet, ~700 kg dry
Launch date (UTC)
2024-06-01 (1 year ago)
Launch vehicle
FALCON 9
Launch site
Air Force Eastern Test Range (AFETR)
Object type
Payload
Rocket body
Debris
Shape & HBR
Unknown
Radar Cross Section
Large (>1 m²)

Expand to show TLE details & history
Last TLE update: 15 hours ago

TLE from 15 hours ago
0 STARLINK-31973
1 59943U 24106X   25258.67097656  .00000421  00000-0  24814-4 0  9991
2 59943  43.0039 241.1370 0000913 271.8849  88.1898 15.27584591 73752
Epoch: 2025-09-15T16:06Z
TLE epoch observation values (Epoch: 2025-09-15T16:06:12.374Z)
Latitude
-0.00004°
Longitude
4.71311°
Altitude
482.791 km
Speed
7.626 km/s
True Right ascension
16h 04m 32s
True Declination
0° 00' 00"
Sunlit
Object was in daylight at epoch
Visualization orbit readout
Latitude
Unknown
Longitude
Unknown
Altitude
Unknown
Speed
Unknown
Apparent Right ascension
Unknown
Apparent Declination
Unknown
Sunlit
N/A
Visualization observer readout
Local Sidereal Time
00:14:42
Azimuth
Unknown
Elevation
Unknown
Doppler factor
Unknown
Orbital elements
Apogee altitude
485.606 km
Perigee altitude
484.353 km
Semi-major axis
6,863.117 km
Eccentricity
0.00009
Inclination
43.0039°
RAAN
241.137°
Arg. of periapsis
271.8849°
True anomaly
88.20026°
Mean anomaly
88.1898°
Eccentric anomaly
88.19503°
Mean motion
3.81734 °/min
Orbital period
94.31 mins
BSTAR
0.000024814
Loading maneuver chart data...
Computing Atmospheric mass density...
Loading historical data...
Loading historical data...
Loading historical data...
Loading historical data...
Loading historical data...
Loading historical data...
Loading historical data...

Documentation

Showing up to 5 results
|